This is the latest recevied weather packets stored in our database for station/object NE8U. If no packets are shown the sender has not sent any weather packets the latest 10 day(s).
| Time | Temp. | Humidity | Pressure | Rain* | Wind** | Luminosity | Snow |
|---|---|---|---|---|---|---|---|
| 1777520007 | 22.22° C | 19% | 1014.9 hPa | 0 mm | - | 0 W/m² | - |
| 1777519704 | 22.22° C | 19% | 1014.5 hPa | 0 mm | - | 0 W/m² | - |
| 1777519400 | 22.22° C | 19% | 1014.8 hPa | 0 mm | - | 0 W/m² | - |
| 1777519097 | 22.22° C | 19% | 1014.5 hPa | 0 mm | - | 0 W/m² | - |
| 1777518793 | 22.78° C | 19% | 1014.6 hPa | 0 mm | - | 0 W/m² | - |
| 1777518489 | 22.78° C | 19% | 1014.4 hPa | 0 mm | - | 0 W/m² | - |
| 1777518185 | 22.78° C | 18% | 1014.5 hPa | 0 mm | - | 0 W/m² | - |
| 1777517882 | 22.78° C | 18% | 1014.4 hPa | 0 mm | - | 0 W/m² | - |
| 1777517577 | 22.78° C | 19% | 1014.4 hPa | 0 mm | - | 0 W/m² | - |
| 1777517275 | 22.78° C | 18% | 1014.2 hPa | 0 mm | - | 0 W/m² | - |
| 1777516974 | 23.33° C | 18% | 1014.1 hPa | 0 mm | - | 0 W/m² | - |
| 1777516671 | 23.33° C | 18% | 1014.2 hPa | 0 mm | - | 0 W/m² | - |
| 1777516367 | 23.33° C | 17% | 1013.9 hPa | 0 mm | - | 0 W/m² | - |
| 1777516063 | 24.44° C | 17% | 1014 hPa | 0 mm | - | 0 W/m² | - |
| 1777515760 | 24.44° C | 17% | 1014 hPa | 0 mm | - | 0 W/m² | - |
| 1777515456 | 24.44° C | 17% | 1014 hPa | 0 mm | - | 0 W/m² | - |
| 1777515153 | 24.44° C | 16% | 1013.8 hPa | 0 mm | - | 0 W/m² | - |
| 1777514850 | 25° C | 16% | 1014.1 hPa | 0 mm | - | 0 W/m² | - |
| 1777514546 | 25° C | 16% | 1013.9 hPa | 0 mm | - | 0 W/m² | - |
| 1777514245 | 25.56° C | 16% | 1013.8 hPa | 0 mm | - | 2 W/m² | - |
| 1777513940 | 25.56° C | 15% | 1013.8 hPa | 0 mm | - | 5 W/m² | - |
| 1777513638 | 25.56° C | 15% | 1013.5 hPa | 0 mm | - | 7 W/m² | - |
| 1777513335 | 25.56° C | 15% | 1013.5 hPa | 0 mm | - | 7 W/m² | - |
| 1777513030 | 25.56° C | 15% | 1013.5 hPa | 0 mm | - | 7 W/m² | - |
| 1777512727 | 26.11° C | 15% | 1013.6 hPa | 0 mm | - | 14 W/m² | - |
* Rain latest hour (hover to see other rain measurements)
** Current wind speed in m/s (hover to see current wind gust speed)